Regional Weather Roundup
Issued by NWS

Home | Current Version | Previous Version | Text Only | Print | Product List | Glossary On
Versions: 1 2 3 4 5 6 7 8 9 10 11 12 13 14 15 16 17 18 19 20 21 22 23 24 25 26 27 28 29 30 31 32 33 34 35 36 37 38 39 40 41 42 43 44 45 46 47 48 49 50
038
ASUS42 KKEY 221810
RWRKEY

FLORIDA REGIONAL WEATHER ROUNDUP FOR THE FLORIDA KEYS
NATIONAL WEATHER SERVICE KEY WEST FLORIDA
200 PM EDT THU JUN 22 2017

...SOUTH FLORIDA AND THE KEYS...

CITY           SKY/WX    TMP DP  RH WIND       PRES   REMARKS
FORT MYERS     MOSUNNY   92  74  55 SE10G20   30.02F HX 101
SW REGIONAL AP SUNNY     91  72  53 SE12      30.03F HX  98
NAPLES         MOSUNNY   93  72  50 SE13      30.03F HX 101
MIAMI          PTSUNNY   90  74  59 SE15      30.07S HX  99
WEST KENDALL   PTSUNNY   89  74  60 SE13      30.07R HX  98
HOMESTEAD      PTSUNNY   87  78  74 E10G20    30.06S HX 100
MARATHON       MOSUNNY   88  77  69 E12G20    30.04S HX 100
BOCA CHICA NAS MOSUNNY   88  79  74 E20       30.03S HX 103
KEY WEST INTL  PTSUNNY   88  78  72 E21       30.04S HX 101

...INTERNATIONAL WEATHER...

CITY           SKY/WX    TMP DP  RH WIND       PRES   REMARKS
NASSAU BAHAMAS MOSUNNY   91  75  59 E10       30.06F HX 102
CANCUN MEXICO  MOSUNNY   88  79  74 SE15      29.96S HX 102
COZUMEL MEXICO MOSUNNY   86  75  70 S12       29.93F HX  95

ADJACENT COASTAL WATERS...

STATION/POSITION TIME  SKY/WX   TEMP    WIND        PRES    WAVE
                                AIR SEA DIR/SP/G            HT/PER
                 (UTC)          (F)     (DEG/KT/KT) (MB)    (FT/S)
PULASKI SHOAL LI 1800            83     120/ 14/ 15 1016.7F
SAND KEY         1750            83     110/ 18/ 20 1017.4F
LONG KEY         NOT AVBL
MOLASSES REEF    1800            83 84  110/ 13/ 15 1018.0S
FOWEY ROCKS      1800            82 84  100/ 14/ 15 1018.7F
Buoy 42097       1730               82                N/A     4/ 8

$$




USA.gov is the U.S. government's official web portal to all federal, state and local government web resources and services.